{"data":{"norad_id":46808,"epoch":"2026-09-20T05:19:47.064000Z","epoch_age_seconds":97634,"freshness":"FRESH","line1":"1 46808U 20076B   26263.22207250  .00001821  00000+0  13465-3 0  9993","line2":"2 46808  34.9938 231.5864 0000417 156.8456 203.2271 15.03032453322538","mean_motion":15.03032453,"eccentricity":4.17e-5,"inclination_deg":34.9938,"raan_deg":231.5864,"arg_perigee_deg":156.8456,"mean_anomaly_deg":203.2271,"bstar":0.00013465,"rev_number":32253,"period_min":95.80631456931,"perigee_km":557.262651728,"apogee_km":557.84108817975,"semimajor_km":6935.6888699539,"source":"CELESTRAK","updated_at":"2026-09-20T09:00:14.798389Z"}}